This is the latest recevied weather packets stored in our database for station/object EA6AMI-5. If no packets are shown the sender has not sent any weather packets the latest 10 day(s).
| Time | Temp. | Humidity | Pressure | Rain* | Wind** | Luminosity | Snow |
|---|---|---|---|---|---|---|---|
| 1777815903 | 18.89° C | 75% | 1015.2 hPa | 0 mm | - | 285 W/m² | - |
| 1777815364 | 18.89° C | 75% | 1014.8 hPa | 0 mm | - | 250 W/m² | - |
| 1777814823 | 18.89° C | 76% | 1014.9 hPa | 0 mm | - | 217 W/m² | - |
| 1777814283 | 18.89° C | 76% | 1015.1 hPa | 0 mm | - | 211 W/m² | - |
| 1777813743 | 18.89° C | 76% | 1015.2 hPa | 0 mm | - | 244 W/m² | - |
| 1777813203 | 18.89° C | 76% | 1015.1 hPa | 0 mm | - | 247 W/m² | - |
| 1777812843 | 18.89° C | 76% | 1014.9 hPa | 0 mm | - | 229 W/m² | - |
| 1777812304 | 18.33° C | 75% | 1015.1 hPa | 0 mm | - | 226 W/m² | - |
| 1777811763 | 18.33° C | 76% | 1015.3 hPa | 0 mm | - | 233 W/m² | - |
| 1777811223 | 18.33° C | 76% | 1015.2 hPa | 0 mm | - | 181 W/m² | - |
| 1777810683 | 18.33° C | 76% | 1015.4 hPa | 0 mm | - | 264 W/m² | - |
| 1777810143 | 17.78° C | 76% | 1015.4 hPa | 0 mm | - | 345 W/m² | - |
| 1777809603 | 18.33° C | 77% | 1015.7 hPa | 0 mm | - | 314 W/m² | - |
| 1777809243 | 17.78° C | 78% | 1015.8 hPa | 0 mm | - | 309 W/m² | - |
| 1777808703 | 17.78° C | 80% | 1016.1 hPa | 0 mm | - | 304 W/m² | - |
| 1777808163 | 16.67° C | 81% | 1016.4 hPa | 0 mm | - | 297 W/m² | - |
| 1777807623 | 16.67° C | 84% | 1016.3 hPa | 0 mm | - | 251 W/m² | - |
| 1777807083 | 17.22° C | 83% | 1016.3 hPa | 0 mm | - | 231 W/m² | - |
| 1777806543 | 16.67° C | 84% | 1016.2 hPa | 0 mm | - | 239 W/m² | - |
| 1777806003 | 16.67° C | 86% | 1016.2 hPa | 0 mm | - | 252 W/m² | - |
| 1777805643 | 16.11° C | 86% | 1016.5 hPa | 0 mm | - | 245 W/m² | - |
| 1777805103 | 16.11° C | 88% | 1016.6 hPa | 0 mm | - | 231 W/m² | - |
| 1777804563 | 15.56° C | 88% | 1016.5 hPa | 0 mm | - | 210 W/m² | - |
| 1777804024 | 15.56° C | 89% | 1016.7 hPa | 0 mm | - | 179 W/m² | - |
| 1777803483 | 16.11° C | 89% | 1016.4 hPa | 0 mm | - | 162 W/m² | - |
* Rain latest hour (hover to see other rain measurements)
** Current wind speed in m/s (hover to see current wind gust speed)